Starlink 5449

operational
NORAD ID: 54780 Int'l Des: 2022-175 Owner: SPXS Country: US Constellation: starlink
LEOCIRCULAR

关于 Starlink 5449

正在加载描述...

实时位置

正在加载3D地球...

即将过境

高度历史

Altitude vs Time

uPlot chart will show altitude changes over time

两行轨道根数

1 54780U 22175Y 26035.65443712 .00001489 00000-0 11160-3 0 9993
2 54780 53.2167 177.3225 0001284 108.9035 251.2096 15.08838502175141
Epoch: Feb 4, 2026 • Age: 10 hours

当前状态

高度 540.3 km
速度 7.59 km/s
星下点 5.07°N, 25.01°E
发射日期 Dec 17, 2022
运行时间 3.1 years
类型 internet

技术详情

分类 Payload
质量 305.00 kg
干质量 290.00 kg
总质量 305.00 kg
长度 0.20 m
直径 2.80 m
跨度 9.00 m
形状 Box + pan
制造商 SPXS
平台类型 Starlink
阶段状态 In Orbit
所有者/国家 SPXS/US

大型星座

Loading constellations...